Tracking 23446 objects as of 20-Jun-2021
HD Live streaming from Space Station
objects crossing your sky now

STARLINK-2575

Track STARLINK-2575 now!
10-day predictions
STARLINK-2575 is classified as:


NORAD ID: 48396
Int'l Code: 2021-038AV
Perigee: 354.5 km
Apogee: 358.5 km
Inclination: 53.0 °
Period: 91.5 minutes
Semi major axis: 6727 km
RCS: Unknown
Launch date: May 4, 2021
Source: United States (US)
Launch site: AIR FORCE EASTERN TEST RANGE (AFETR)
aabbcc
Your satellite tracking list
Your tracking list is empty




NASA's NSSDC Master Catalog

Two Line Element Set (TLE):
1 48396U 21038AV  21171.50001157 -.00423278  00000-0 -31448-2 0  9995
2 48396  53.0494 171.8723 0002989  17.0225  55.7723 15.73338981  7959
Source of the keplerian elements: AFSPC